Regional Weather Roundup
Issued by NWS Lake Charles, LA

Home | Current Version | Previous Version | Text Only | Print | Product List | Glossary On
Versions: 1 2 3 4 5 6 7 8 9 10 11 12 13 14 15 16 17 18 19 20 21 22 23 24 25 26 27 28
000
ASUS44 KLCH 260610
RWRLCH
RWRLCH
REGIONAL WEATHER ROUNDUP
NATIONAL WEATHER SERVICE LAKE CHARLES LA
100 AM CDT SUN OCT 26 2014

Note: "fair" indicates few or no clouds below 12,000 feet with no
significant weather and/or obstructions to visibility.


ACROSS SOUTHEAST TEXAS

CITY           SKY/WX    TMP DP  RH WIND       PRES   REMARKS
BEAUMONT       CLEAR     56  55  97 CALM      30.08F
BEAUMONT CITY    N/A     55  55  99 CALM      30.09F
ORANGE         CLEAR    N/A N/A N/A CALM      30.10F HAZE
JASPER         FOG       55  54  98 CALM      30.11S VSB 3/4
$$

ACROSS CENTRAL LOUISIANA

CITY           SKY/WX    TMP DP  RH WIND       PRES   REMARKS
LEESVILLE      CLEAR     58  55  89 SW1       30.08S
FULLERTON        N/A     57  53  86 CALM      30.06F
ALEXANDRIA INT CLEAR     59  58  96 CALM      30.06F
ESLER FIELD    CLEAR     54  54 100 CALM      30.07F
DERIDDER         N/A     57  55  91 CALM      30.10F
OAKDALE        CLEAR     51  49  95 CALM      30.08F
OPELOUSAS        N/A     53  53  99 CALM      30.08F
$$

ACROSS SOUTHWEST AND SOUTH CENTRAL LOUISIANA

CITY           SKY/WX    TMP DP  RH WIND       PRES   REMARKS
SULPHUR        FOG       58  58  99 CALM      30.09S VSB 1/2
LAKE CHARLES   CLEAR     57  55  93 CALM      30.08F FOG
CHENNAULT INT  CLEAR     58  56  94 CALM      30.08F
CAMERON PHI    PTCLDY    68  63  83 CALM      30.11F
DEQUINCY         N/A     54  52  94 CALM      30.09S
JENNINGS         N/A     57  56  96 CALM      30.08F
LAFAYETTE      CLEAR     59  58  96 CALM      30.08F
NEW IBERIA     CLEAR     56  53  90 CALM      30.09S
ABBEVILLE        N/A     57  57  99 CALM      30.08F
PATTERSON      CLEAR     57  55  94 CALM      30.10F
SALT POINT       N/A     67  64  90 CALM      30.08S
$$

SELECTED SITES ACROSS THE REGION

CITY           SKY/WX    TMP DP  RH WIND       PRES   REMARKS
HOUSTON BUSH   CLEAR     59  57  93 CALM      30.08F
HOUSTON HOBBY  CLEAR     62  60  93 CALM      30.08F
GALVESTON      CLEAR     69  61  75 CALM      30.09F
COLLEGE STAT   CLEAR     66  59  78 S7        30.08F
CONROE         CLEAR     58  56  93 CALM      30.09F
HUNTSVILLE     CLEAR     67  59  75 S7        30.08F
LUFKIN         CLEAR     63  59  87 E3        30.08F
SHREVEPORT     CLEAR     65  62  90 W3        30.05F
MONROE         CLEAR     59  58  96 S3        30.06F
NATCHEZ MS     CLEAR     57  54  88 S3        30.08S
BATON ROUGE    CLEAR     56  54  93 CALM      30.07F
N.O. INTL ARPT CLEAR     62  58  86 W5        30.07F
SLIDELL        CLEAR     56  53  90 CALM      30.06F
$$

MARINE REPORTS

STATION/POSITION TIME  TEMP    WIND        PRES    VSBY  WAVE
                       AIR SEA DIR/SP/G                  HT/PER
                 (UTC) (F)     (DEG/KT/KT) (MB)    (MI)  (FT/S)
BUOY 30 S HIGH I 0600   74 77  180/  4/  6 1018.5F         1/ 7
SEA RIM ST PARK  0600   67     250/  3/  3 1019.2F
PORT ARTHUR      0600      73  220/  2/  3 1018.6F
SABINE PASS N    0600   70 74  230/  3/  4 1018.6F
TEXAS POINT      0600   72 74  200/  5/  5 1018.7F
CALCASIEU PASS   0600   72 72  260/  5/  6   N/A
LK CHARLES BEACH 0600   66 75              1018.6S
MARSH ISLAND     NOT AVBL
FRESH WATER LOCK 0600   64 72  270/  5/  6 1018.5F
AMERADA PASS     0600   68 70  260/  2/  4 1018.5S
$$



USA.gov is the U.S. government's official web portal to all federal, state and local government web resources and services.